Date/Time,Date/Time,No.1,No.2
Date/Time,Date/Time,RTR507B _showa Ch.1,RTR507B _showa Ch.2
,,��C,%
2021-09-30 23:50:00,44469.9930555556,18.8,86.2
2021-09-30 23:40:00,44469.9861111111,19.0,85.4
2021-09-30 23:30:00,44469.9791666667,19.1,85.6
2021-09-30 23:20:00,44469.9722222222,19.1,85.1
2021-09-30 23:10:00,44469.9652777778,19.2,85.4
2021-09-30 23:00:00,44469.9583333333,19.2,84.9
2021-09-30 22:50:00,44469.9513888889,19.3,84.2
2021-09-30 22:40:00,44469.9444444444,19.3,83.1
2021-09-30 22:30:00,44469.9375000000,19.4,83.5
2021-09-30 22:20:00,44469.9305555556,19.5,82.9
2021-09-30 22:10:00,44469.9236111111,19.6,82.8
2021-09-30 22:00:00,44469.9166666667,19.6,82.6
2021-09-30 21:50:00,44469.9097222222,19.7,82.4
2021-09-30 21:40:00,44469.9027777778,19.8,82.5
2021-09-30 21:30:00,44469.8958333333,19.9,82.6
2021-09-30 21:20:00,44469.8888888889,19.9,82.4
2021-09-30 21:10:00,44469.8819444444,20.0,82.2
2021-09-30 21:00:00,44469.8750000000,20.1,81.9
2021-09-30 20:50:00,44469.8680555556,20.2,81.7
2021-09-30 20:40:00,44469.8611111111,20.3,81.1
2021-09-30 20:30:00,44469.8541666667,20.4,81.1
2021-09-30 20:20:00,44469.8472222222,20.5,80.6
2021-09-30 20:10:00,44469.8402777778,20.6,80.3
2021-09-30 20:00:00,44469.8333333333,20.8,80.3
2021-09-30 19:50:00,44469.8263888889,20.8,79.5
2021-09-30 19:40:00,44469.8194444444,20.9,79.7
2021-09-30 19:30:00,44469.8125000000,21.0,80.1
2021-09-30 19:20:00,44469.8055555556,21.0,80.2
2021-09-30 19:10:00,44469.7986111111,21.1,78.9
2021-09-30 19:00:00,44469.7916666667,21.3,78.0
2021-09-30 18:50:00,44469.7847222222,21.4,76.8
2021-09-30 18:40:00,44469.7777777778,21.5,76.9
2021-09-30 18:30:00,44469.7708333333,21.6,75.3
2021-09-30 18:20:00,44469.7638888889,21.8,76.2
2021-09-30 18:10:00,44469.7569444444,22.0,75.3
2021-09-30 18:00:00,44469.7500000000,22.2,74.2
2021-09-30 17:50:00,44469.7430555556,22.4,73.2
2021-09-30 17:40:00,44469.7361111111,22.7,72.9
2021-09-30 17:30:00,44469.7291666667,22.9,74.5
2021-09-30 17:20:00,44469.7222222222,23.1,76.0
2021-09-30 17:10:00,44469.7152777778,23.4,75.1
2021-09-30 17:00:00,44469.7083333333,23.7,72.8
2021-09-30 16:50:00,44469.7013888889,23.9,72.4
2021-09-30 16:40:00,44469.6944444444,24.1,71.5
2021-09-30 16:30:00,44469.6875000000,24.3,71.3
2021-09-30 16:20:00,44469.6805555556,24.6,68.4
2021-09-30 16:10:00,44469.6736111111,24.8,67.0
2021-09-30 16:00:00,44469.6666666667,25.1,65.7
2021-09-30 15:50:00,44469.6597222222,25.4,66.5
2021-09-30 15:40:00,44469.6527777778,25.7,64.6
2021-09-30 15:30:00,44469.6458333333,26.0,64.5
2021-09-30 15:20:00,44469.6388888889,26.3,61.4
2021-09-30 15:10:00,44469.6319444444,26.4,61.0
2021-09-30 15:00:00,44469.6250000000,26.5,58.7
2021-09-30 14:50:00,44469.6180555556,26.6,56.4
2021-09-30 14:40:00,44469.6111111111,26.6,54.4
2021-09-30 14:30:00,44469.6041666667,26.6,52.3
2021-09-30 14:20:00,44469.5972222222,26.6,51.8
2021-09-30 14:10:00,44469.5902777778,26.5,52.4
2021-09-30 14:00:00,44469.5833333333,26.5,54.0
2021-09-30 13:50:00,44469.5763888889,26.5,53.7
2021-09-30 13:40:00,44469.5694444444,26.5,52.4
2021-09-30 13:30:00,44469.5625000000,26.6,52.2
2021-09-30 13:20:00,44469.5555555556,26.7,51.4
2021-09-30 13:10:00,44469.5486111111,26.9,50.2
2021-09-30 13:00:00,44469.5416666667,27.0,49.9
2021-09-30 12:50:00,44469.5347222222,27.0,49.6
2021-09-30 12:40:00,44469.5277777778,26.9,50.0
2021-09-30 12:30:00,44469.5208333333,26.8,50.3
2021-09-30 12:20:00,44469.5138888889,26.6,50.6
2021-09-30 12:10:00,44469.5069444444,26.6,50.0
2021-09-30 12:00:00,44469.5000000000,26.6,49.7
2021-09-30 11:50:00,44469.4930555556,26.5,48.3
2021-09-30 11:40:00,44469.4861111111,26.3,48.4
2021-09-30 11:30:00,44469.4791666667,26.2,47.9
2021-09-30 11:20:00,44469.4722222222,26.0,49.5
2021-09-30 11:10:00,44469.4652777778,25.9,51.5
2021-09-30 11:00:00,44469.4583333333,25.7,51.7
2021-09-30 10:50:00,44469.4513888889,25.5,54.0
2021-09-30 10:40:00,44469.4444444444,25.4,53.5
2021-09-30 10:30:00,44469.4375000000,25.2,53.2
2021-09-30 10:20:00,44469.4305555556,25.0,54.6
2021-09-30 10:10:00,44469.4236111111,24.8,55.1
2021-09-30 10:00:00,44469.4166666667,24.5,58.4
2021-09-30 09:50:00,44469.4097222222,24.4,60.5
2021-09-30 09:40:00,44469.4027777778,24.3,60.9
2021-09-30 09:30:00,44469.3958333333,24.2,62.0
2021-09-30 09:20:00,44469.3888888889,24.1,63.3
2021-09-30 09:10:00,44469.3819444444,23.9,63.9
2021-09-30 09:00:00,44469.3750000000,23.7,64.4
2021-09-30 08:50:00,44469.3680555556,23.3,64.0
2021-09-30 08:40:00,44469.3611111111,22.8,65.0
2021-09-30 08:30:00,44469.3541666667,22.2,66.7
2021-09-30 08:20:00,44469.3472222222,21.4,68.9
2021-09-30 08:10:00,44469.3402777778,20.5,71.1
2021-09-30 08:00:00,44469.3333333333,19.7,73.5
2021-09-30 07:50:00,44469.3263888889,19.0,76.0
2021-09-30 07:40:00,44469.3194444444,18.2,81.8
2021-09-30 07:30:00,44469.3125000000,16.9,86.7
2021-09-30 07:20:00,44469.3055555556,15.5,90.8
2021-09-30 07:10:00,44469.2986111111,14.3,92.3
2021-09-30 07:00:00,44469.2916666667,13.5,91.9
2021-09-30 06:50:00,44469.2847222222,13.1,91.2
2021-09-30 06:40:00,44469.2777777778,12.9,90.5
2021-09-30 06:30:00,44469.2708333333,12.8,90.2
2021-09-30 06:20:00,44469.2638888889,12.8,89.3
2021-09-30 06:10:00,44469.2569444444,12.7,89.7
2021-09-30 06:00:00,44469.2500000000,12.7,89.3
2021-09-30 05:50:00,44469.2430555556,12.7,89.2
2021-09-30 05:40:00,44469.2361111111,12.7,89.7
2021-09-30 05:30:00,44469.2291666667,12.7,90.2
2021-09-30 05:20:00,44469.2222222222,12.8,89.7
2021-09-30 05:10:00,44469.2152777778,12.8,89.2
2021-09-30 05:00:00,44469.2083333333,12.7,89.0
2021-09-30 04:50:00,44469.2013888889,12.7,88.9
2021-09-30 04:40:00,44469.1944444444,12.8,88.3
2021-09-30 04:30:00,44469.1875000000,12.8,88.4
2021-09-30 04:20:00,44469.1805555556,12.8,88.4
2021-09-30 04:10:00,44469.1736111111,12.8,87.4
2021-09-30 04:00:00,44469.1666666667,12.9,87.1
2021-09-30 03:50:00,44469.1597222222,13.0,87.1
2021-09-30 03:40:00,44469.1527777778,13.1,86.6
2021-09-30 03:30:00,44469.1458333333,13.1,85.9
2021-09-30 03:20:00,44469.1388888889,13.2,86.8
2021-09-30 03:10:00,44469.1319444444,13.2,85.9
2021-09-30 03:00:00,44469.1250000000,13.3,85.9
2021-09-30 02:50:00,44469.1180555556,13.4,85.9
2021-09-30 02:40:00,44469.1111111111,13.5,86.3
2021-09-30 02:30:00,44469.1041666667,13.5,86.4
2021-09-30 02:20:00,44469.0972222222,13.5,85.8
2021-09-30 02:10:00,44469.0902777778,13.6,85.8
2021-09-30 02:00:00,44469.0833333333,13.7,85.1
2021-09-30 01:50:00,44469.0763888889,13.7,85.6
2021-09-30 01:40:00,44469.0694444444,13.7,85.8
2021-09-30 01:30:00,44469.0625000000,13.7,85.9
2021-09-30 01:20:00,44469.0555555556,13.8,86.0
2021-09-30 01:10:00,44469.0486111111,13.8,86.0
2021-09-30 01:00:00,44469.0416666667,13.9,86.1
2021-09-30 00:50:00,44469.0347222222,14.0,85.3
2021-09-30 00:40:00,44469.0277777778,14.0,86.3
2021-09-30 00:30:00,44469.0208333333,14.1,85.4
2021-09-30 00:20:00,44469.0138888889,14.1,85.4
2021-09-30 00:10:00,44469.0069444444,14.2,84.7
2021-09-30 00:00:00,44469.0000000000,14.3,85.3
2021-09-29 23:50:00,44468.9930555556,14.3,86.2
2021-09-29 23:40:00,44468.9861111111,14.4,85.7
2021-09-29 23:30:00,44468.9791666667,14.5,85.0
2021-09-29 23:20:00,44468.9722222222,14.5,84.7
2021-09-29 23:10:00,44468.9652777778,14.6,84.6
2021-09-29 23:00:00,44468.9583333333,14.6,84.5
2021-09-29 22:50:00,44468.9513888889,14.7,84.1
2021-09-29 22:40:00,44468.9444444444,14.8,84.7
2021-09-29 22:30:00,44468.9375000000,14.9,84.4
2021-09-29 22:20:00,44468.9305555556,15.0,83.5
2021-09-29 22:10:00,44468.9236111111,15.1,83.3
2021-09-29 22:00:00,44468.9166666667,15.3,83.3
2021-09-29 21:50:00,44468.9097222222,15.3,83.0
2021-09-29 21:40:00,44468.9027777778,15.5,83.0
2021-09-29 21:30:00,44468.8958333333,15.6,83.0
2021-09-29 21:20:00,44468.8888888889,15.7,83.2
2021-09-29 21:10:00,44468.8819444444,15.7,82.8
2021-09-29 21:00:00,44468.8750000000,15.9,81.9
2021-09-29 20:50:00,44468.8680555556,16.1,81.0
2021-09-29 20:40:00,44468.8611111111,16.3,80.8
2021-09-29 20:30:00,44468.8541666667,16.4,80.7
2021-09-29 20:20:00,44468.8472222222,16.6,80.3
2021-09-29 20:10:00,44468.8402777778,16.7,79.7
2021-09-29 20:00:00,44468.8333333333,17.0,79.2
2021-09-29 19:50:00,44468.8263888889,17.2,78.1
2021-09-29 19:40:00,44468.8194444444,17.4,77.6
2021-09-29 19:30:00,44468.8125000000,17.7,77.1
2021-09-29 19:20:00,44468.8055555556,18.0,76.2
2021-09-29 19:10:00,44468.7986111111,18.2,75.7
2021-09-29 19:00:00,44468.7916666667,18.4,75.5
2021-09-29 18:50:00,44468.7847222222,18.7,74.6
2021-09-29 18:40:00,44468.7777777778,18.9,73.9
2021-09-29 18:30:00,44468.7708333333,19.1,73.1
2021-09-29 18:20:00,44468.7638888889,19.4,72.5
2021-09-29 18:10:00,44468.7569444444,19.6,71.6
2021-09-29 18:00:00,44468.7500000000,19.9,70.9
2021-09-29 17:50:00,44468.7430555556,20.2,70.0
2021-09-29 17:40:00,44468.7361111111,20.5,68.8
2021-09-29 17:30:00,44468.7291666667,20.9,68.0
2021-09-29 17:20:00,44468.7222222222,21.2,65.9
2021-09-29 17:10:00,44468.7152777778,21.6,63.3
2021-09-29 17:00:00,44468.7083333333,21.8,61.3
2021-09-29 16:50:00,44468.7013888889,22.1,60.0
2021-09-29 16:40:00,44468.6944444444,22.3,59.4
2021-09-29 16:30:00,44468.6875000000,22.5,59.5
2021-09-29 16:20:00,44468.6805555556,22.7,58.2
2021-09-29 16:10:00,44468.6736111111,22.9,58.1
2021-09-29 16:00:00,44468.6666666667,23.1,56.9
2021-09-29 15:50:00,44468.6597222222,23.2,56.6
2021-09-29 15:40:00,44468.6527777778,23.3,55.5
2021-09-29 15:30:00,44468.6458333333,23.5,54.1
2021-09-29 15:20:00,44468.6388888889,23.7,53.6
2021-09-29 15:10:00,44468.6319444444,23.8,53.5
2021-09-29 15:00:00,44468.6250000000,23.9,53.3
2021-09-29 14:50:00,44468.6180555556,24.1,52.8
2021-09-29 14:40:00,44468.6111111111,24.2,53.8
2021-09-29 14:30:00,44468.6041666667,24.4,52.7
2021-09-29 14:20:00,44468.5972222222,24.6,52.8
2021-09-29 14:10:00,44468.5902777778,24.7,53.7
2021-09-29 14:00:00,44468.5833333333,24.7,53.5
2021-09-29 13:50:00,44468.5763888889,24.8,52.6
2021-09-29 13:40:00,44468.5694444444,24.7,53.3
2021-09-29 13:30:00,44468.5625000000,24.6,53.1
2021-09-29 13:20:00,44468.5555555556,24.5,53.0
2021-09-29 13:10:00,44468.5486111111,24.4,52.2
2021-09-29 13:00:00,44468.5416666667,24.2,53.5
2021-09-29 12:50:00,44468.5347222222,23.9,53.8
2021-09-29 12:40:00,44468.5277777778,23.7,54.0
2021-09-29 12:30:00,44468.5208333333,23.4,58.5
2021-09-29 12:20:00,44468.5138888889,23.1,60.0
2021-09-29 12:10:00,44468.5069444444,22.9,61.9
2021-09-29 12:00:00,44468.5000000000,22.8,62.1
2021-09-29 11:50:00,44468.4930555556,22.8,58.9
2021-09-29 11:40:00,44468.4861111111,22.7,58.9
2021-09-29 11:30:00,44468.4791666667,22.3,59.7
2021-09-29 11:20:00,44468.4722222222,21.9,62.6
2021-09-29 11:10:00,44468.4652777778,21.5,63.8
2021-09-29 11:00:00,44468.4583333333,21.2,63.3
2021-09-29 10:50:00,44468.4513888889,20.9,64.3
2021-09-29 10:40:00,44468.4444444444,20.4,67.2
2021-09-29 10:30:00,44468.4375000000,20.0,68.6
2021-09-29 10:20:00,44468.4305555556,19.5,69.3
2021-09-29 10:10:00,44468.4236111111,18.9,71.0
2021-09-29 10:00:00,44468.4166666667,18.4,74.8
2021-09-29 09:50:00,44468.4097222222,17.8,77.2
2021-09-29 09:40:00,44468.4027777778,17.4,79.3
2021-09-29 09:30:00,44468.3958333333,16.7,82.1
2021-09-29 09:20:00,44468.3888888889,16.1,83.3
2021-09-29 09:10:00,44468.3819444444,15.7,84.0
2021-09-29 09:00:00,44468.3750000000,15.4,85.2
2021-09-29 08:50:00,44468.3680555556,15.0,85.9
2021-09-29 08:40:00,44468.3611111111,14.7,87.0
2021-09-29 08:30:00,44468.3541666667,14.4,87.4
2021-09-29 08:20:00,44468.3472222222,14.1,87.6
2021-09-29 08:10:00,44468.3402777778,13.8,88.7
2021-09-29 08:00:00,44468.3333333333,13.3,89.2
2021-09-29 07:50:00,44468.3263888889,13.0,88.6
2021-09-29 07:40:00,44468.3194444444,12.8,88.4
2021-09-29 07:30:00,44468.3125000000,12.7,87.9
2021-09-29 07:20:00,44468.3055555556,12.6,87.3
2021-09-29 07:10:00,44468.2986111111,12.6,87.5
2021-09-29 07:00:00,44468.2916666667,12.5,87.8
2021-09-29 06:50:00,44468.2847222222,12.3,88.1
2021-09-29 06:40:00,44468.2777777778,12.2,88.7
2021-09-29 06:30:00,44468.2708333333,12.2,88.7
2021-09-29 06:20:00,44468.2638888889,12.1,88.3
2021-09-29 06:10:00,44468.2569444444,12.2,87.7
2021-09-29 06:00:00,44468.2500000000,12.3,87.1
2021-09-29 05:50:00,44468.2430555556,12.3,87.5
2021-09-29 05:40:00,44468.2361111111,12.2,88.3
2021-09-29 05:30:00,44468.2291666667,12.2,87.9
2021-09-29 05:20:00,44468.2222222222,12.3,87.6
2021-09-29 05:10:00,44468.2152777778,12.3,88.2
2021-09-29 05:00:00,44468.2083333333,12.4,88.4
2021-09-29 04:50:00,44468.2013888889,12.4,89.0
2021-09-29 04:40:00,44468.1944444444,12.5,89.1
2021-09-29 04:30:00,44468.1875000000,12.5,89.0
2021-09-29 04:20:00,44468.1805555556,12.5,88.7
2021-09-29 04:10:00,44468.1736111111,12.5,88.6
2021-09-29 04:00:00,44468.1666666667,12.4,88.7
2021-09-29 03:50:00,44468.1597222222,12.4,88.1
2021-09-29 03:40:00,44468.1527777778,12.3,88.3
2021-09-29 03:30:00,44468.1458333333,12.3,88.9
2021-09-29 03:20:00,44468.1388888889,12.3,88.8
2021-09-29 03:10:00,44468.1319444444,12.4,88.6
2021-09-29 03:00:00,44468.1250000000,12.4,87.6
2021-09-29 02:50:00,44468.1180555556,12.3,88.1
2021-09-29 02:40:00,44468.1111111111,12.3,88.4
2021-09-29 02:30:00,44468.1041666667,12.3,87.7
2021-09-29 02:20:00,44468.0972222222,12.3,87.3
2021-09-29 02:10:00,44468.0902777778,12.2,88.3
2021-09-29 02:00:00,44468.0833333333,12.2,87.5
2021-09-29 01:50:00,44468.0763888889,12.2,86.5
2021-09-29 01:40:00,44468.0694444444,12.2,85.1
2021-09-29 01:30:00,44468.0625000000,12.3,83.9
2021-09-29 01:20:00,44468.0555555556,12.4,83.8
2021-09-29 01:10:00,44468.0486111111,12.5,84.7
2021-09-29 01:00:00,44468.0416666667,12.5,84.1
2021-09-29 00:50:00,44468.0347222222,12.6,83.5
2021-09-29 00:40:00,44468.0277777778,12.7,83.7
2021-09-29 00:30:00,44468.0208333333,12.8,83.4
2021-09-29 00:20:00,44468.0138888889,12.9,84.8
2021-09-29 00:10:00,44468.0069444444,13.0,84.2
2021-09-29 00:00:00,44468.0000000000,13.1,82.6
2021-09-28 23:50:00,44467.9930555556,13.2,82.4
2021-09-28 23:40:00,44467.9861111111,13.4,83.7
2021-09-28 23:30:00,44467.9791666667,13.5,83.5
2021-09-28 23:20:00,44467.9722222222,13.6,83.8
2021-09-28 23:10:00,44467.9652777778,13.6,83.2
2021-09-28 23:00:00,44467.9583333333,13.7,83.6
2021-09-28 22:50:00,44467.9513888889,13.8,84.6
2021-09-28 22:40:00,44467.9444444444,13.8,83.9
2021-09-28 22:30:00,44467.9375000000,14.0,82.9
2021-09-28 22:20:00,44467.9305555556,14.1,83.7
2021-09-28 22:10:00,44467.9236111111,14.2,83.3
2021-09-28 22:00:00,44467.9166666667,14.3,83.4
2021-09-28 21:50:00,44467.9097222222,14.4,83.2
2021-09-28 21:40:00,44467.9027777778,14.5,83.4
2021-09-28 21:30:00,44467.8958333333,14.6,82.5
2021-09-28 21:20:00,44467.8888888889,14.8,81.8
2021-09-28 21:10:00,44467.8819444444,14.9,81.8
2021-09-28 21:00:00,44467.8750000000,15.1,82.7
2021-09-28 20:50:00,44467.8680555556,15.2,82.8
2021-09-28 20:40:00,44467.8611111111,15.3,81.7
2021-09-28 20:30:00,44467.8541666667,15.5,80.6
2021-09-28 20:20:00,44467.8472222222,15.6,80.3
2021-09-28 20:10:00,44467.8402777778,15.8,79.7
2021-09-28 20:00:00,44467.8333333333,16.1,79.6
2021-09-28 19:50:00,44467.8263888889,16.3,79.1
2021-09-28 19:40:00,44467.8194444444,16.5,78.4
2021-09-28 19:30:00,44467.8125000000,16.7,77.6
2021-09-28 19:20:00,44467.8055555556,17.0,77.0
2021-09-28 19:10:00,44467.7986111111,17.2,76.4
2021-09-28 19:00:00,44467.7916666667,17.4,75.6
2021-09-28 18:50:00,44467.7847222222,17.7,74.9
2021-09-28 18:40:00,44467.7777777778,18.0,73.7
2021-09-28 18:30:00,44467.7708333333,18.3,72.6
2021-09-28 18:20:00,44467.7638888889,18.7,72.0
2021-09-28 18:10:00,44467.7569444444,19.0,70.9
2021-09-28 18:00:00,44467.7500000000,19.4,69.5
2021-09-28 17:50:00,44467.7430555556,19.8,68.9
2021-09-28 17:40:00,44467.7361111111,20.3,67.8
2021-09-28 17:30:00,44467.7291666667,20.8,66.2
2021-09-28 17:20:00,44467.7222222222,21.3,63.9
2021-09-28 17:10:00,44467.7152777778,21.7,61.3
2021-09-28 17:00:00,44467.7083333333,22.0,58.7
2021-09-28 16:50:00,44467.7013888889,22.2,58.4
2021-09-28 16:40:00,44467.6944444444,22.5,57.7
2021-09-28 16:30:00,44467.6875000000,22.7,56.3
2021-09-28 16:20:00,44467.6805555556,23.0,55.4
2021-09-28 16:10:00,44467.6736111111,23.2,55.1
2021-09-28 16:00:00,44467.6666666667,23.3,54.3
2021-09-28 15:50:00,44467.6597222222,23.4,54.4
2021-09-28 15:40:00,44467.6527777778,23.4,55.0
2021-09-28 15:30:00,44467.6458333333,23.4,55.1
2021-09-28 15:20:00,44467.6388888889,23.4,55.2
2021-09-28 15:10:00,44467.6319444444,23.3,56.3
2021-09-28 15:00:00,44467.6250000000,23.4,60.2
2021-09-28 14:50:00,44467.6180555556,23.5,59.3
2021-09-28 14:40:00,44467.6111111111,23.7,55.6
2021-09-28 14:30:00,44467.6041666667,23.9,54.8
2021-09-28 14:20:00,44467.5972222222,24.0,54.2
2021-09-28 14:10:00,44467.5902777778,24.2,53.5
2021-09-28 14:00:00,44467.5833333333,24.3,50.5
2021-09-28 13:50:00,44467.5763888889,24.4,48.8
2021-09-28 13:40:00,44467.5694444444,24.4,49.2
2021-09-28 13:30:00,44467.5625000000,24.3,47.9
2021-09-28 13:20:00,44467.5555555556,24.2,47.5
2021-09-28 13:10:00,44467.5486111111,24.1,47.5
2021-09-28 13:00:00,44467.5416666667,23.9,48.4
2021-09-28 12:50:00,44467.5347222222,23.8,49.6
2021-09-28 12:40:00,44467.5277777778,23.7,51.1
2021-09-28 12:30:00,44467.5208333333,23.6,50.6
2021-09-28 12:20:00,44467.5138888889,23.5,50.1
2021-09-28 12:10:00,44467.5069444444,23.4,50.2
2021-09-28 12:00:00,44467.5000000000,23.2,50.9
2021-09-28 11:50:00,44467.4930555556,23.1,49.4
2021-09-28 11:40:00,44467.4861111111,22.9,52.5
2021-09-28 11:30:00,44467.4791666667,22.7,52.4
2021-09-28 11:20:00,44467.4722222222,22.5,54.1
2021-09-28 11:10:00,44467.4652777778,22.2,54.3
2021-09-28 11:00:00,44467.4583333333,21.8,56.8
2021-09-28 10:50:00,44467.4513888889,21.4,59.3
2021-09-28 10:40:00,44467.4444444444,21.1,59.9
2021-09-28 10:30:00,44467.4375000000,20.8,61.0
2021-09-28 10:20:00,44467.4305555556,20.6,62.9
2021-09-28 10:10:00,44467.4236111111,20.4,62.2
2021-09-28 10:00:00,44467.4166666667,20.2,61.5
2021-09-28 09:50:00,44467.4097222222,19.9,64.6
2021-09-28 09:40:00,44467.4027777778,19.6,64.4
2021-09-28 09:30:00,44467.3958333333,19.5,64.0
2021-09-28 09:20:00,44467.3888888889,19.3,64.9
2021-09-28 09:10:00,44467.3819444444,19.3,68.1
2021-09-28 09:00:00,44467.3750000000,18.5,70.5
2021-09-28 08:50:00,44467.3680555556,18.0,71.4
2021-09-28 08:40:00,44467.3611111111,17.4,73.2
2021-09-28 08:30:00,44467.3541666667,17.0,74.7
2021-09-28 08:20:00,44467.3472222222,16.3,78.5
2021-09-28 08:10:00,44467.3402777778,15.5,79.4
2021-09-28 08:00:00,44467.3333333333,14.8,81.2
2021-09-28 07:50:00,44467.3263888889,14.4,84.6
2021-09-28 07:40:00,44467.3194444444,13.5,89.6
2021-09-28 07:30:00,44467.3125000000,12.2,88.5
2021-09-28 07:20:00,44467.3055555556,11.9,87.6
2021-09-28 07:10:00,44467.2986111111,11.8,87.6
2021-09-28 07:00:00,44467.2916666667,11.7,87.8
2021-09-28 06:50:00,44467.2847222222,11.6,88.0
2021-09-28 06:40:00,44467.2777777778,11.5,88.0
2021-09-28 06:30:00,44467.2708333333,11.4,88.2
2021-09-28 06:20:00,44467.2638888889,11.3,88.2
2021-09-28 06:10:00,44467.2569444444,11.3,88.4
2021-09-28 06:00:00,44467.2500000000,11.3,87.7
2021-09-28 05:50:00,44467.2430555556,11.4,86.6
2021-09-28 05:40:00,44467.2361111111,11.4,86.0
2021-09-28 05:30:00,44467.2291666667,11.4,86.1
2021-09-28 05:20:00,44467.2222222222,11.4,85.5
2021-09-28 05:10:00,44467.2152777778,11.5,85.0
2021-09-28 05:00:00,44467.2083333333,11.5,85.2
2021-09-28 04:50:00,44467.2013888889,11.5,85.8
2021-09-28 04:40:00,44467.1944444444,11.6,86.7
2021-09-28 04:30:00,44467.1875000000,11.6,87.2
2021-09-28 04:20:00,44467.1805555556,11.7,87.3
2021-09-28 04:10:00,44467.1736111111,11.7,87.0
2021-09-28 04:00:00,44467.1666666667,11.7,86.6
2021-09-28 03:50:00,44467.1597222222,11.7,86.5
2021-09-28 03:40:00,44467.1527777778,11.7,85.5
2021-09-28 03:30:00,44467.1458333333,11.8,85.8
2021-09-28 03:20:00,44467.1388888889,11.8,85.8
2021-09-28 03:10:00,44467.1319444444,11.9,86.0
2021-09-28 03:00:00,44467.1250000000,11.9,86.2
2021-09-28 02:50:00,44467.1180555556,12.0,86.2
2021-09-28 02:40:00,44467.1111111111,12.0,86.4
2021-09-28 02:30:00,44467.1041666667,12.0,86.4
2021-09-28 02:20:00,44467.0972222222,12.0,86.6
2021-09-28 02:10:00,44467.0902777778,12.1,87.9
2021-09-28 02:00:00,44467.0833333333,12.1,88.4
2021-09-28 01:50:00,44467.0763888889,12.1,88.1
2021-09-28 01:40:00,44467.0694444444,12.1,87.6
2021-09-28 01:30:00,44467.0625000000,12.0,87.5
2021-09-28 01:20:00,44467.0555555556,12.0,86.8
2021-09-28 01:10:00,44467.0486111111,11.9,86.6
2021-09-28 01:00:00,44467.0416666667,11.9,86.5
2021-09-28 00:50:00,44467.0347222222,11.9,85.0
2021-09-28 00:40:00,44467.0277777778,12.0,84.0
2021-09-28 00:30:00,44467.0208333333,12.1,84.1
2021-09-28 00:20:00,44467.0138888889,12.1,84.0
2021-09-28 00:10:00,44467.0069444444,12.2,83.4
2021-09-28 00:00:00,44467.0000000000,12.2,83.4
2021-09-27 23:50:00,44466.9930555556,12.3,83.3
2021-09-27 23:40:00,44466.9861111111,12.4,83.0
2021-09-27 23:30:00,44466.9791666667,12.5,82.6
2021-09-27 23:20:00,44466.9722222222,12.6,83.1
2021-09-27 23:10:00,44466.9652777778,12.7,83.3
2021-09-27 23:00:00,44466.9583333333,12.8,82.7
2021-09-27 22:50:00,44466.9513888889,12.9,83.3
2021-09-27 22:40:00,44466.9444444444,13.0,82.9
2021-09-27 22:30:00,44466.9375000000,13.1,83.3
2021-09-27 22:20:00,44466.9305555556,13.2,82.9
2021-09-27 22:10:00,44466.9236111111,13.4,81.5
2021-09-27 22:00:00,44466.9166666667,13.5,81.8
2021-09-27 21:50:00,44466.9097222222,13.6,82.1
2021-09-27 21:40:00,44466.9027777778,13.7,81.3
2021-09-27 21:30:00,44466.8958333333,13.8,81.7
2021-09-27 21:20:00,44466.8888888889,13.8,81.6
2021-09-27 21:10:00,44466.8819444444,13.9,81.6
2021-09-27 21:00:00,44466.8750000000,14.1,80.9
2021-09-27 20:50:00,44466.8680555556,14.3,80.7
2021-09-27 20:40:00,44466.8611111111,14.4,80.8
2021-09-27 20:30:00,44466.8541666667,14.6,80.7
2021-09-27 20:20:00,44466.8472222222,14.7,80.3
2021-09-27 20:10:00,44466.8402777778,14.8,79.8
2021-09-27 20:00:00,44466.8333333333,15.0,79.9
2021-09-27 19:50:00,44466.8263888889,15.2,78.6
2021-09-27 19:40:00,44466.8194444444,15.3,78.5
2021-09-27 19:30:00,44466.8125000000,15.6,77.9
2021-09-27 19:20:00,44466.8055555556,15.8,77.6
2021-09-27 19:10:00,44466.7986111111,16.1,76.3
2021-09-27 19:00:00,44466.7916666667,16.4,75.6
2021-09-27 18:50:00,44466.7847222222,16.7,75.2
2021-09-27 18:40:00,44466.7777777778,17.0,74.5
2021-09-27 18:30:00,44466.7708333333,17.3,73.6
2021-09-27 18:20:00,44466.7638888889,17.7,72.3
2021-09-27 18:10:00,44466.7569444444,18.1,71.4
2021-09-27 18:00:00,44466.7500000000,18.6,69.6
2021-09-27 17:50:00,44466.7430555556,18.9,69.5
2021-09-27 17:40:00,44466.7361111111,19.2,68.4
2021-09-27 17:30:00,44466.7291666667,19.6,67.3
2021-09-27 17:20:00,44466.7222222222,19.9,66.7
2021-09-27 17:10:00,44466.7152777778,20.3,65.6
2021-09-27 17:00:00,44466.7083333333,20.7,64.2
2021-09-27 16:50:00,44466.7013888889,20.9,62.6
2021-09-27 16:40:00,44466.6944444444,21.1,61.6
2021-09-27 16:30:00,44466.6875000000,21.3,60.4
2021-09-27 16:20:00,44466.6805555556,21.5,59.7
2021-09-27 16:10:00,44466.6736111111,21.7,59.3
2021-09-27 16:00:00,44466.6666666667,21.8,59.5
2021-09-27 15:50:00,44466.6597222222,21.9,59.2
2021-09-27 15:40:00,44466.6527777778,22.1,58.3
2021-09-27 15:30:00,44466.6458333333,22.3,57.6
2021-09-27 15:20:00,44466.6388888889,22.5,56.0
2021-09-27 15:10:00,44466.6319444444,22.6,55.9
2021-09-27 15:00:00,44466.6250000000,22.6,55.7
2021-09-27 14:50:00,44466.6180555556,22.6,56.5
2021-09-27 14:40:00,44466.6111111111,22.6,56.5
2021-09-27 14:30:00,44466.6041666667,22.6,55.4
2021-09-27 14:20:00,44466.5972222222,22.8,55.1
2021-09-27 14:10:00,44466.5902777778,22.9,54.0
2021-09-27 14:00:00,44466.5833333333,23.1,53.8
2021-09-27 13:50:00,44466.5763888889,23.2,53.1
2021-09-27 13:40:00,44466.5694444444,23.4,53.7
2021-09-27 13:30:00,44466.5625000000,23.4,53.0
2021-09-27 13:20:00,44466.5555555556,23.5,53.1
2021-09-27 13:10:00,44466.5486111111,23.4,50.7